Location: Aldenham
(51.6667°N, 0.3500°W)
Time: 18:22:14
(UTC+00:00)

Explorer 7 - Pass Details

Date: 15 February 2026
Orbit: 430 x 542 km, 50.2° (Epoch: 8 March)

Event Time Altitude Azimuth Distance (km) Brightness Sun altitude
Rises 20:59:11 0° 280° (W) 2,564 11.2 -34.5°
Enters shadow 21:01:25 10° 272° (W) 1,710 10.0 -34.8°
Reaches altitude 10° 21:01:26 10° 272° (W) 1,701 - -34.8°
Maximum altitude 21:04:59 35° 205° (SSW) 835 - -35.3°
Drops below altitude 10° 21:08:38 10° 139° (SE) 1,757 - -35.8°
Sets 21:11:00 0° 131° (SE) 2,660 - -36.1°
